Weather History for KUOX - April, 2013

Change the Weather History Date:

Thursday, April 4, 2013

  Actual Average Record
Temperature  
Mean Temperature 44 °F -  
Max Temperature 48 °F 72 °F 89 °F (1934)
Min Temperature 41 °F 45 °F 21 °F (1987)
Degree Days  
Heating Degree Days 20    
Moisture  
Dew Point 43 °F    
Average Humidity 95    
Maximum Humidity 100    
Minimum Humidity 76    
Precipitation  
Precipitation 0.14 in - - ()
Sea Level Pressure  
Sea Level Pressure 30.02 in    
Wind  
Wind Speed 4 mph (NE)    
Max Wind Speed 8 mph    
Max Gust Speed 17 mph    
Visibility 4 miles    
Events Rain    
Averages and records for this station are not official NWS values.
T = Trace of Precipitation, MM = Missing Value Source: NWS Daily Summary

Daily Weather History Graph

Daily Weather History Graph

Search for Another Location

Airport or City:

Trip Planner

Search our weather history database for the weather conditions in past years. The results will help you decide how hot, cold, wet, or windy it might be!

Date:

Astronomy

Apr. 04, 2013 Rise Set
Actual Time 6:40 AM CDT 7:21 PM CDT
Civil Twilight 6:15 AM CDT 7:47 PM CDT
Nautical Twilight 5:45 AM CDT 8:17 PM CDT
Astronomical Twilight 5:15 AM CDT 8:47 PM CDT
Moon 2:53 AM CDT (4/4) 1:53 PM CDT (4/4)
Length of Visible Light 13h 31m
Length of Day
12h 40m
Waning Crescent, 33% of the Moon is Illuminated
Apr 4
Waning Crescent
Apr 10
New
Apr 18
First Quarter
Apr 25
Full
May 2
Last Quarter

Hourly Weather History & Observations

Time (CDT) Temp. Windchill Dew Point Humidity Pressure Visibility Wind Dir Wind Speed Gust Speed Precip Events Conditions
12:15 AM 42.8 °F - 41.0 °F 93% 30.12 in 8.0 mi Calm Calm - N/A   Overcast
12:35 AM 42.8 °F 40.1 °F 39.2 °F 87% 30.11 in 9.0 mi East 4.6 mph - N/A   Overcast
12:55 AM 42.8 °F 40.1 °F 39.2 °F 87% 30.10 in 9.0 mi East 4.6 mph - N/A   Overcast
1:15 AM 42.8 °F - 39.2 °F 87% 30.10 in 10.0 mi Calm Calm - N/A   Overcast
1:35 AM 42.8 °F - 39.2 °F 87% 30.09 in 9.0 mi Calm Calm - N/A   Overcast
1:55 AM 42.8 °F - 39.2 °F 87% 30.08 in 10.0 mi Calm Calm - N/A   Overcast
2:15 AM 42.8 °F 41.1 °F 39.2 °F 87% 30.07 in 10.0 mi NE 3.5 mph - N/A   Overcast
2:35 AM 44.6 °F 42.2 °F 39.2 °F 81% 30.05 in 9.0 mi NE 4.6 mph - N/A   Overcast
2:55 AM 44.6 °F 40.2 °F 37.4 °F 76% 30.05 in 10.0 mi ENE 8.1 mph - N/A   Overcast
3:15 AM 44.6 °F 40.2 °F 37.4 °F 76% 30.04 in 8.0 mi East 8.1 mph 17.3 mph N/A   Overcast
3:35 AM 41.0 °F 35.8 °F 37.4 °F 87% 30.04 in 2.0 mi ENE 8.1 mph - N/A Rain Light Rain
3:55 AM 41.0 °F 37.1 °F 39.2 °F 93% 30.04 in 2.5 mi ENE 5.8 mph - 0.01 in Rain Light Rain
4:15 AM 41.0 °F 37.1 °F 39.2 °F 93% 30.04 in 3.0 mi NE 5.8 mph - N/A Rain Light Rain
4:35 AM 41.0 °F 37.1 °F 39.2 °F 93% 30.03 in 5.0 mi ENE 5.8 mph - N/A   Overcast
4:55 AM 41.0 °F 36.4 °F 39.2 °F 93% 30.03 in 5.0 mi ENE 6.9 mph - N/A   Overcast
5:15 AM 41.0 °F 37.1 °F 39.2 °F 93% 30.02 in 5.0 mi NE 5.8 mph - N/A   Overcast
5:35 AM 41.0 °F 36.4 °F 39.2 °F 93% 30.02 in 5.0 mi ENE 6.9 mph - N/A   Overcast
5:55 AM 41.0 °F 36.4 °F 39.2 °F 93% 30.02 in 5.0 mi NE 6.9 mph - N/A   Overcast
6:15 AM 41.0 °F 36.4 °F 39.2 °F 93% 30.02 in 5.0 mi ENE 6.9 mph - N/A   Overcast
6:35 AM 41.0 °F 36.4 °F 41.0 °F 100% 30.02 in 3.0 mi ENE 6.9 mph - N/A   Overcast
6:55 AM 41.0 °F 38.0 °F 41.0 °F 100% 30.04 in 2.5 mi ENE 4.6 mph - N/A   Overcast
7:15 AM 41.0 °F 38.0 °F 41.0 °F 100% 30.04 in 1.8 mi ENE 4.6 mph - N/A   Overcast
7:35 AM 41.0 °F 38.0 °F 41.0 °F 100% 30.04 in 1.8 mi NE 4.6 mph - N/A   Overcast
7:55 AM 41.0 °F 36.4 °F 41.0 °F 100% 30.04 in 1.8 mi NE 6.9 mph - N/A   Overcast
8:15 AM 41.0 °F 36.4 °F 41.0 °F 100% 30.04 in 2.0 mi ENE 6.9 mph - N/A   Overcast
8:35 AM 41.0 °F 35.8 °F 41.0 °F 100% 30.04 in 2.0 mi ENE 8.1 mph - N/A   Overcast
8:55 AM 41.0 °F 36.4 °F 41.0 °F 100% 30.03 in 2.5 mi ENE 6.9 mph - N/A   Overcast
9:35 AM 42.8 °F 38.6 °F 41.0 °F 93% 30.03 in 4.0 mi ENE 6.9 mph - N/A   Overcast
9:55 AM 42.8 °F 40.1 °F 41.0 °F 93% 30.03 in 2.0 mi East 4.6 mph - N/A   Overcast
10:15 AM 42.8 °F 38.6 °F 41.0 °F 93% 30.04 in 1.0 mi ENE 6.9 mph - N/A   Overcast
10:55 AM 44.6 °F 43.1 °F 42.8 °F 93% 30.04 in 1.5 mi NNE 3.5 mph - N/A   Overcast
11:35 AM 44.6 °F 41.4 °F 42.8 °F 93% 30.04 in 3.0 mi NE 5.8 mph - N/A   Overcast
11:55 AM 44.6 °F 43.1 °F 42.8 °F 93% 30.04 in 2.0 mi ENE 3.5 mph - N/A Rain Light Rain
12:15 PM 44.6 °F 42.2 °F 44.6 °F 100% 30.03 in 1.2 mi NNE 4.6 mph - N/A Rain Light Rain
12:35 PM 44.6 °F 41.4 °F 44.6 °F 100% 30.02 in 1.2 mi ENE 5.8 mph - N/A   Overcast
12:55 PM 44.6 °F 41.4 °F 44.6 °F 100% 30.02 in 1.5 mi NE 5.8 mph - N/A Rain Light Rain
1:15 PM 44.6 °F 42.2 °F 44.6 °F 100% 30.01 in 2.0 mi NE 4.6 mph - N/A Rain Light Rain
1:35 PM 46.4 °F 44.3 °F 44.6 °F 93% 30.01 in 2.0 mi NE 4.6 mph - N/A   Overcast
1:55 PM 46.4 °F 44.3 °F 44.6 °F 93% 30.00 in 3.0 mi NE 4.6 mph - N/A   Overcast
2:15 PM 46.4 °F 45.2 °F 44.6 °F 93% 30.00 in 3.0 mi NNE 3.5 mph - N/A   Overcast
2:35 PM 46.4 °F 43.5 °F 44.6 °F 93% 29.99 in 2.5 mi ENE 5.8 mph - N/A   Overcast
2:55 PM 46.4 °F 45.2 °F 44.6 °F 93% 29.99 in 1.0 mi NE 3.5 mph - 0.01 in Rain Light Rain
3:15 PM 46.4 °F 45.2 °F 46.4 °F 100% 29.98 in 0.8 mi North 3.5 mph - 0.02 in Rain Light Rain
3:35 PM 46.4 °F 45.2 °F 46.4 °F 100% 29.97 in 1.8 mi NE 3.5 mph - 0.03 in Rain Light Rain
3:55 PM 46.4 °F 45.2 °F 46.4 °F 100% 29.97 in 2.5 mi NNE 3.5 mph - 0.03 in Rain Light Rain
4:15 PM 46.4 °F 43.5 °F 46.4 °F 100% 29.96 in 2.0 mi NNE 5.8 mph - N/A Rain Light Rain
4:35 PM 46.4 °F 45.2 °F 46.4 °F 100% 29.97 in 3.0 mi North 3.5 mph - N/A   Overcast
4:55 PM 48.2 °F - 46.4 °F 93% 29.97 in 1.2 mi North 3.5 mph - 0.01 in Rain Light Rain
5:15 PM 46.4 °F 45.2 °F 46.4 °F 100% 29.97 in 2.5 mi North 3.5 mph - N/A Rain Light Rain
5:35 PM 46.4 °F 44.3 °F 46.4 °F 100% 29.97 in 4.0 mi North 4.6 mph - N/A   Overcast
5:55 PM 46.4 °F 45.2 °F 46.4 °F 100% 29.98 in 5.0 mi North 3.5 mph - N/A   Overcast
6:15 PM 46.4 °F 45.2 °F 46.4 °F 100% 29.98 in 2.0 mi North 3.5 mph - N/A Rain Light Rain
6:35 PM 46.4 °F 45.2 °F 46.4 °F 100% 29.99 in 1.2 mi North 3.5 mph - N/A Rain Light Rain
6:55 PM 46.4 °F 45.2 °F 46.4 °F 100% 29.99 in 1.2 mi North 3.5 mph - N/A Rain Light Rain
7:15 PM 46.4 °F 44.3 °F 46.4 °F 100% 29.99 in 0.8 mi North 4.6 mph - N/A Rain Light Rain
7:35 PM 46.4 °F 45.2 °F 46.4 °F 100% 29.99 in 1.5 mi North 3.5 mph - N/A Rain Light Rain
7:55 PM 46.4 °F 44.3 °F 46.4 °F 100% 30.00 in 1.5 mi North 4.6 mph - 0.01 in Rain Light Rain
8:15 PM 46.4 °F 45.2 °F 46.4 °F 100% 30.00 in 1.5 mi North 3.5 mph - 0.02 in Rain Light Rain
8:35 PM 46.4 °F 45.2 °F 46.4 °F 100% 30.01 in 2.5 mi NNE 3.5 mph - 0.05 in Rain Light Rain
8:55 PM 46.4 °F 44.3 °F 46.4 °F 100% 30.02 in 3.0 mi NNE 4.6 mph - 0.07 in Rain Light Rain
9:15 PM 46.4 °F 44.3 °F 44.6 °F 93% 30.02 in 4.0 mi NNE 4.6 mph - N/A Rain Light Rain
9:35 PM 46.4 °F 43.5 °F 44.6 °F 93% 30.03 in 3.0 mi North 5.8 mph - N/A Rain Light Rain
9:55 PM 46.4 °F 45.2 °F 44.6 °F 93% 30.03 in 5.0 mi NNE 3.5 mph - N/A   Overcast
10:15 PM 46.4 °F 43.5 °F 44.6 °F 93% 30.04 in 9.0 mi NNE 5.8 mph - N/A   Mostly Cloudy
10:35 PM 46.4 °F 44.3 °F 44.6 °F 93% 30.04 in 9.0 mi NNE 4.6 mph - N/A   Overcast
10:55 PM 44.6 °F 43.1 °F 44.6 °F 100% 30.04 in 9.0 mi NNE 3.5 mph - N/A   Overcast
11:15 PM 44.6 °F 42.2 °F 44.6 °F 100% 30.04 in 10.0 mi NNE 4.6 mph - N/A   Overcast
11:35 PM 44.6 °F 43.1 °F 44.6 °F 100% 30.05 in 8.0 mi North 3.5 mph - N/A   Overcast
11:55 PM 44.6 °F 43.1 °F 44.6 °F 100% 30.05 in 7.0 mi North 3.5 mph - N/A   Overcast